When you browse on this site, cookies collect data to enhance your experience and personalize the content and advertising you see.
Visit our Privacy Policy to learn more. By continuing to use the site, you agree to this use of cookies and data.
  • In Norway
  • List of Countries
  • For 7 days
  • Water Temperature
  • Satellite Maps
  • Weather Map
  • Weather Widgets
  • user-avatar
    Login

    Hourly Weather Barra

    Today, 11 December, Tuesday

    Time Temperature Precipitation Wind Pressure Humidity
    00:00 +25°C° 1.4 mm 3 mps 746 mmHg 97%
    01:00 +25°C° 1.4 mm 3 mps 746 mmHg 97%
    02:00 +25°C° 1.3 mm 3 mps 745 mmHg 97%
    03:00 +25°C° 1.3 mm 3 mps 745 mmHg 97%
    04:00 +25°C° 0 mm 3 mps 745 mmHg 97%
    05:00 +26°C° 0.9 mm 3 mps 746 mmHg 97%
    06:00 +26°C° 0.9 mm 3 mps 746 mmHg 96%
    07:00 +26°C° 0.9 mm 3 mps 746 mmHg 95%
    08:00 +27°C° 0.8 mm 3 mps 746 mmHg 93%
    09:00 +28°C° 0.8 mm 3 mps 746 mmHg 90%
    10:00 +28°C° 0.8 mm 3 mps 747 mmHg 88%
    11:00 +29°C° 0.5 mm 3 mps 746 mmHg 85%
    12:00 +29°C° 0.5 mm 3 mps 746 mmHg 82%
    13:00 +30°C° 0.5 mm 3 mps 746 mmHg 80%
    14:00 +30°C° 0.2 mm 3 mps 745 mmHg 79%
    15:00 +30°C° 0.2 mm 3 mps 745 mmHg 79%
    16:00 +30°C° 0.2 mm 3 mps 744 mmHg 79%
    17:00 +29°C° 0.4 mm 3 mps 745 mmHg 83%
    18:00 +28°C° 0.4 mm 3 mps 745 mmHg 88%
    19:00 +27°C° 0.4 mm 2 mps 745 mmHg 93%
    20:00 +27°C° 0.5 mm 2 mps 746 mmHg 94%
    21:00 +27°C° 0.5 mm 2 mps 746 mmHg 95%
    22:00 +26°C° 0.5 mm 2 mps 746 mmHg 96%
    23:00 +26°C° 0.8 mm 2 mps 746 mmHg 96%

    Tomorrow, 12 December, Wednesday

    Time Temperature Precipitation Wind Pressure Humidity
    00:00 +26°C° 0.8 mm 2 mps 746 mmHg 97%
    01:00 +26°C° 0.8 mm 2 mps 745 mmHg 97%
    02:00 +26°C° 0.2 mm 2 mps 745 mmHg 97%
    03:00 +26°C° 0.2 mm 2 mps 745 mmHg 97%
    04:00 +26°C° 0.2 mm 2 mps 745 mmHg 97%
    05:00 +26°C° 0.1 mm 2 mps 745 mmHg 96%
    06:00 +26°C° 0.1 mm 2 mps 746 mmHg 95%
    07:00 +27°C° 0.1 mm 2 mps 746 mmHg 93%
    08:00 +28°C° 0.1 mm 2 mps 746 mmHg 88%
    09:00 +29°C° 0.1 mm 2 mps 746 mmHg 82%
    10:00 +30°C° 0.1 mm 2 mps 746 mmHg 76%
    11:00 +31°C° 0.1 mm 3 mps 746 mmHg 72%
    12:00 +33°C° 0.1 mm 3 mps 745 mmHg 68%
    13:00 +34°C° 0.1 mm 3 mps 745 mmHg 64%
    14:00 +34°C° 0.1 mm 2 mps 744 mmHg 66%
    15:00 +32°C° 0.1 mm 2 mps 744 mmHg 69%
    16:00 +32°C° 0.1 mm 2 mps 743 mmHg 71%
    17:00 +30°C° 0.1 mm 2 mps 744 mmHg 77%
    18:00 +29°C° 0.1 mm 1 mps 744 mmHg 83%
    19:00 +28°C° 0.1 mm 1 mps 744 mmHg 88%
    20:00 +28°C° 0.1 mm 1 mps 745 mmHg 90%
    21:00 +27°C° 0.1 mm 1 mps 745 mmHg 92%
    22:00 +27°C° 0.1 mm 1 mps 746 mmHg 93%
    23:00 +27°C° 0.1 mm 1 mps 745 mmHg 94%

    Day after tomorrow, 13 December, Thursday

    Time Temperature Precipitation Wind Pressure Humidity
    00:00 +27°C° 0.1 mm 1 mps 745 mmHg 95%
    01:00 +25°C° 0.1 mm 0 mps 744 mmHg 96%
    02:00 +27°C° 0 mm 1 mps 744 mmHg 96%
    03:00 +27°C° 0 mm 1 mps 744 mmHg 96%
    04:00 +26°C° 0 mm 1 mps 743 mmHg 96%
    05:00 +27°C° 0 mm 1 mps 744 mmHg 94%
    06:00 +27°C° 0 mm 1 mps 744 mmHg 92%
    07:00 +27°C° 0 mm 1 mps 745 mmHg 90%
    08:00 +29°C° 0.3 mm 1 mps 745 mmHg 83%
    09:00 +31°C° 0.3 mm 1 mps 745 mmHg 75%
    10:00 +33°C° 0.3 mm 1 mps 745 mmHg 67%
    11:00 +32°C° 0.5 mm 1 mps 745 mmHg 71%
    12:00 +31°C° 0.5 mm 2 mps 745 mmHg 76%
    13:00 +30°C° 0.5 mm 2 mps 744 mmHg 81%
    14:00 +30°C° 1 mm 2 mps 744 mmHg 84%
    15:00 +29°C° 1 mm 2 mps 744 mmHg 86%
    16:00 +29°C° 1 mm 2 mps 743 mmHg 88%
    17:00 +28°C° 0.2 mm 3 mps 743 mmHg 90%
    18:00 +27°C° 0.2 mm 3 mps 743 mmHg 91%
    19:00 +27°C° 0.2 mm 3 mps 743 mmHg 92%
    20:00 +26°C° 0 mm 3 mps 743 mmHg 92%
    21:00 +26°C° 0 mm 3 mps 743 mmHg 91%
    22:00 +26°C° 0 mm 4 mps 743 mmHg 91%
    23:00 +26°C° 0 mm 3 mps 743 mmHg 90%

    14 December, Friday

    Time Temperature Precipitation Wind Pressure Humidity
    00:00 +26°C° 0 mm 2 mps 743 mmHg 89%
    01:00 +26°C° 0 mm 1 mps 743 mmHg 89%
    02:00 +26°C° 0.1 mm 2 mps 742 mmHg 89%
    03:00 +26°C° 0.1 mm 2 mps 742 mmHg 89%
    04:00 +25°C° 0.1 mm 2 mps 742 mmHg 90%
    05:00 +26°C° 0.1 mm 2 mps 742 mmHg 89%
    06:00 +26°C° 0.1 mm 2 mps 743 mmHg 88%
    07:00 +26°C° 0.1 mm 2 mps 743 mmHg 87%
    08:00 +28°C° 0.4 mm 2 mps 743 mmHg 83%
    09:00 +29°C° 0.4 mm 2 mps 743 mmHg 79%
    10:00 +30°C° 0.4 mm 1 mps 743 mmHg 75%
    11:00 +31°C° 0.7 mm 1 mps 743 mmHg 72%
    12:00 +32°C° 0.7 mm 2 mps 743 mmHg 68%
    13:00 +34°C° 0.7 mm 2 mps 742 mmHg 65%
    14:00 +31°C° 1.2 mm 2 mps 742 mmHg 72%
    15:00 +30°C° 1.2 mm 2 mps 741 mmHg 79%
    16:00 +29°C° 1.2 mm 2 mps 741 mmHg 85%
    17:00 +28°C° 1.8 mm 2 mps 741 mmHg 88%
    18:00 +27°C° 1.8 mm 2 mps 742 mmHg 91%
    19:00 +27°C° 1.8 mm 1 mps 742 mmHg 94%
    20:00 +26°C° 0.9 mm 2 mps 743 mmHg 95%
    21:00 +26°C° 0.9 mm 2 mps 743 mmHg 95%
    22:00 +26°C° 0.9 mm 2 mps 743 mmHg 96%
    23:00 +26°C° 1.1 mm 2 mps 743 mmHg 96%

    15 December, Saturday

    Time Temperature Precipitation Wind Pressure Humidity
    00:00 +26°C° 1.1 mm 2 mps 743 mmHg 96%
    01:00 +26°C° 1.1 mm 2 mps 742 mmHg 97%
    02:00 +26°C° 0.7 mm 2 mps 742 mmHg 97%
    03:00 +26°C° 0.7 mm 2 mps 742 mmHg 97%
    04:00 +26°C° 0.7 mm 2 mps 741 mmHg 97%
    05:00 +26°C° 1.6 mm 3 mps 742 mmHg 97%
    06:00 +26°C° 1.6 mm 3 mps 743 mmHg 96%
    07:00 +27°C° 1.6 mm 3 mps 743 mmHg 96%
    08:00 +27°C° 1.9 mm 4 mps 743 mmHg 95%
    09:00 +27°C° 1.9 mm 4 mps 742 mmHg 95%
    10:00 +27°C° 1.9 mm 5 mps 742 mmHg 94%
    11:00 +27°C° 1.2 mm 5 mps 741 mmHg 94%
    12:00 +28°C° 1.2 mm 6 mps 740 mmHg 93%
    13:00 +28°C° 1.2 mm 6 mps 740 mmHg 93%
    14:00 +28°C° 1.1 mm 7 mps 739 mmHg 92%
    15:00 +28°C° 1.1 mm 8 mps 738 mmHg 91%
    16:00 +28°C° 1.1 mm 8 mps 737 mmHg 91%
    17:00 +28°C° 1.6 mm 9 mps 738 mmHg 89%
    18:00 +28°C° 1.6 mm 10 mps 738 mmHg 87%
    19:00 +28°C° 1.6 mm 10 mps 738 mmHg 86%
    20:00 +28°C° 1.4 mm 10 mps 738 mmHg 86%
    21:00 +27°C° 1.4 mm 10 mps 738 mmHg 86%
    22:00 +27°C° 1.4 mm 10 mps 739 mmHg 87%
    23:00 +27°C° 0.2 mm 10 mps 738 mmHg 86%

    16 December, Sunday

    Time Temperature Precipitation Wind Pressure Humidity
    00:00 +27°C° 0.2 mm 9 mps 738 mmHg 84%
    01:00 +27°C° 0.2 mm 8 mps 738 mmHg 83%
    02:00 +27°C° 0 mm 7 mps 738 mmHg 82%
    03:00 +27°C° 0 mm 6 mps 739 mmHg 81%
    04:00 +27°C° 0 mm 6 mps 739 mmHg 80%
    05:00 +27°C° 0 mm 5 mps 740 mmHg 78%
    06:00 +28°C° 0 mm 5 mps 741 mmHg 76%
    07:00 +28°C° 0 mm 5 mps 742 mmHg 75%
    08:00 +30°C° 0 mm 4 mps 742 mmHg 66%
    09:00 +33°C° 0 mm 4 mps 742 mmHg 58%
    10:00 +34°C° 0 mm 4 mps 743 mmHg 50%
    11:00 +36°C° 0 mm 4 mps 742 mmHg 43%
    12:00 +37°C° 0 mm 4 mps 742 mmHg 37%
    13:00 +38°C° 0 mm 4 mps 742 mmHg 30%
    14:00 +38°C° 0 mm 4 mps 741 mmHg 28%
    15:00 +40°C° 0 mm 4 mps 741 mmHg 26%
    16:00 +40°C° 0 mm 4 mps 741 mmHg 24%
    17:00 +36°C° 0 mm 4 mps 741 mmHg 31%
    18:00 +33°C° 0 mm 4 mps 741 mmHg 38%
    19:00 +30°C° 0 mm 4 mps 742 mmHg 45%
    20:00 +29°C° 0 mm 4 mps 742 mmHg 46%
    21:00 +28°C° 0 mm 4 mps 742 mmHg 47%
    22:00 +27°C° 0 mm 3 mps 743 mmHg 49%
    23:00 +27°C° 0 mm 3 mps 743 mmHg 51%
    Show more